TimeEST,TemperatureF,Dew PointF,Humidity,Sea Level PressureIn,VisibilityMPH,Wind Direction,Wind SpeedMPH,Gust SpeedMPH,PrecipitationIn,Events,Conditions,WindDirDegrees,DateUTC
12:15 AM,30.2,28.4,93,30.25,10.0,Calm,Calm,-,N/A,,Clear,0,2007-01-02 05:15:00
12:35 AM,28.4,26.6,93,30.25,10.0,Calm,Calm,-,N/A,,Clear,0,2007-01-02 05:35:00
12:57 AM,28.4,26.6,93,30.26,10.0,Calm,Calm,-,N/A,,Clear,0,2007-01-02 05:57:00
1:15 AM,28.4,26.6,93,30.26,10.0,Calm,Calm,-,N/A,,Clear,0,2007-01-02 06:15:00
1:35 AM,28.4,28.4,100,30.27,10.0,Calm,Calm,-,N/A,,Clear,0,2007-01-02 06:35:00
1:55 AM,28.4,28.4,100,30.27,10.0,Calm,Calm,-,N/A,,Clear,0,2007-01-02 06:55:00
2:15 AM,28.4,28.4,100,30.28,10.0,Calm,Calm,-,N/A,,Clear,0,2007-01-02 07:15:00
2:35 AM,26.6,26.6,100,30.29,10.0,Calm,Calm,-,N/A,,Clear,0,2007-01-02 07:35:00
2:56 AM,28.4,26.6,93,30.30,10.0,South,3.5,-,N/A,,Clear,180,2007-01-02 07:56:00
3:17 AM,26.6,26.6,100,30.30,10.0,Calm,Calm,-,N/A,,Clear,0,2007-01-02 08:17:00
3:35 AM,26.6,26.6,100,30.30,10.0,Calm,Calm,-,N/A,,Clear,0,2007-01-02 08:35:00
3:55 AM,26.6,26.6,100,30.30,10.0,Calm,Calm,-,N/A,,Clear,0,2007-01-02 08:55:00
4:15 AM,26.6,26.6,100,30.31,10.0,Calm,Calm,-,N/A,,Clear,0,2007-01-02 09:15:00
4:36 AM,26.6,26.6,100,30.32,10.0,Calm,Calm,-,N/A,,Clear,0,2007-01-02 09:36:00
4:56 AM,26.6,24.8,93,30.32,10.0,Calm,Calm,-,N/A,,Clear,0,2007-01-02 09:56:00
5:16 AM,24.8,24.8,100,30.32,10.0,South,3.5,-,N/A,,Clear,180,2007-01-02 10:16:00
5:36 AM,26.6,26.6,100,30.32,10.0,South,3.5,-,N/A,,Clear,170,2007-01-02 10:36:00
5:56 AM,26.6,24.8,93,30.33,10.0,South,4.6,-,N/A,,Clear,180,2007-01-02 10:56:00
6:16 AM,26.6,26.6,100,30.33,10.0,South,4.6,-,N/A,,Clear,190,2007-01-02 11:16:00
6:35 AM,24.8,24.8,100,30.34,10.0,Calm,Calm,-,N/A,,Clear,0,2007-01-02 11:35:00
6:55 AM,26.6,26.6,100,30.35,10.0,Calm,Calm,-,N/A,,Clear,0,2007-01-02 11:55:00
7:15 AM,26.6,24.8,93,30.35,10.0,Calm,Calm,-,N/A,,Clear,0,2007-01-02 12:15:00
7:35 AM,24.8,24.8,100,30.36,10.0,Calm,Calm,-,N/A,,Clear,0,2007-01-02 12:35:00
7:58 AM,24.8,24.8,100,30.36,10.0,Calm,Calm,-,N/A,,Clear,0,2007-01-02 12:58:00
8:15 AM,26.6,26.6,100,30.37,10.0,South,4.6,-,N/A,,Clear,190,2007-01-02 13:15:00
8:35 AM,26.6,26.6,100,30.37,10.0,South,4.6,-,N/A,,Clear,190,2007-01-02 13:35:00
8:55 AM,28.4,26.6,93,30.38,10.0,South,4.6,-,N/A,,Clear,190,2007-01-02 13:55:00
9:15 AM,28.4,28.4,100,30.38,10.0,SSW,3.5,-,N/A,,Clear,200,2007-01-02 14:15:00
9:36 AM,30.2,28.4,93,30.39,10.0,SSW,3.5,-,N/A,,Clear,210,2007-01-02 14:36:00
9:56 AM,32.0,30.2,93,30.39,10.0,SSW,4.6,-,N/A,,Clear,200,2007-01-02 14:56:00
10:15 AM,33.8,30.2,87,30.39,10.0,SSW,5.8,-,N/A,,Clear,200,2007-01-02 15:15:00
10:35 AM,33.8,32.0,93,30.40,10.0,SSW,4.6,-,N/A,,Clear,200,2007-01-02 15:35:00
10:55 AM,35.6,32.0,87,30.40,10.0,South,4.6,-,N/A,,Clear,190,2007-01-02 15:55:00
11:15 AM,37.4,32.0,81,30.39,10.0,SSW,6.9,-,N/A,,Clear,200,2007-01-02 16:15:00
11:35 AM,37.4,32.0,81,30.39,10.0,SSW,8.1,-,N/A,,Clear,200,2007-01-02 16:35:00
11:55 AM,39.2,30.2,70,30.37,10.0,SSW,11.5,-,N/A,,Clear,200,2007-01-02 16:55:00
12:15 PM,39.2,30.2,70,30.36,10.0,SSW,13.8,-,N/A,,Clear,200,2007-01-02 17:15:00
12:36 PM,39.2,30.2,70,30.35,10.0,SSW,12.7,-,N/A,,Clear,200,2007-01-02 17:36:00
12:56 PM,41.0,30.2,65,30.35,10.0,SSW,10.4,-,N/A,,Clear,210,2007-01-02 17:56:00
1:17 PM,41.0,28.4,61,30.34,10.0,SW,8.1,-,N/A,,Clear,230,2007-01-02 18:17:00
1:36 PM,41.0,26.6,57,30.33,10.0,SW,9.2,-,N/A,,Clear,220,2007-01-02 18:36:00
1:56 PM,42.8,28.4,57,30.32,10.0,SSW,8.1,-,N/A,,Clear,200,2007-01-02 18:56:00
2:16 PM,39.2,26.6,61,30.32,10.0,SSW,8.1,-,N/A,,Clear,210,2007-01-02 19:16:00
2:36 PM,42.8,26.6,53,30.31,10.0,SSW,8.1,-,N/A,,Clear,200,2007-01-02 19:36:00
2:56 PM,42.8,26.6,53,30.31,10.0,SSW,10.4,-,N/A,,Clear,200,2007-01-02 19:56:00
3:18 PM,42.8,28.4,57,30.30,10.0,South,10.4,-,N/A,,Clear,190,2007-01-02 20:18:00
3:36 PM,42.8,28.4,57,30.30,10.0,SSW,6.9,-,N/A,,Clear,200,2007-01-02 20:36:00
3:56 PM,41.0,26.6,57,30.30,10.0,SSW,6.9,-,N/A,,Clear,200,2007-01-02 20:56:00
4:16 PM,41.0,28.4,61,30.30,10.0,South,8.1,-,N/A,,Clear,190,2007-01-02 21:16:00
4:36 PM,41.0,26.6,57,30.30,10.0,South,9.2,-,N/A,,Clear,190,2007-01-02 21:36:00
4:55 PM,39.2,28.4,65,30.30,10.0,SSW,8.1,-,N/A,,Clear,200,2007-01-02 21:55:00
5:15 PM,37.4,28.4,70,30.29,10.0,South,6.9,-,N/A,,Clear,190,2007-01-02 22:15:00
5:36 PM,37.4,28.4,70,30.29,10.0,South,5.8,-,N/A,,Clear,190,2007-01-02 22:36:00
5:56 PM,37.4,26.6,65,30.29,10.0,South,9.2,-,N/A,,Clear,190,2007-01-02 22:56:00
6:16 PM,35.6,26.6,70,30.28,10.0,SSW,5.8,-,N/A,,Clear,200,2007-01-02 23:16:00
6:36 PM,35.6,28.4,75,30.29,10.0,SSW,4.6,-,N/A,,Clear,210,2007-01-02 23:36:00
6:56 PM,35.6,28.4,75,30.28,10.0,SSW,4.6,-,N/A,,Clear,200,2007-01-02 23:56:00
7:16 PM,33.8,28.4,81,30.28,10.0,SSW,6.9,-,N/A,,Clear,200,2007-01-03 00:16:00
7:36 PM,35.6,28.4,75,30.28,10.0,SSW,6.9,-,N/A,,Clear,200,2007-01-03 00:36:00
7:56 PM,35.6,28.4,75,30.27,10.0,South,8.1,-,N/A,,Clear,190,2007-01-03 00:56:00
8:16 PM,35.6,30.2,81,30.26,10.0,South,8.1,-,N/A,,Clear,190,2007-01-03 01:16:00
8:36 PM,35.6,30.2,81,30.26,10.0,SSW,8.1,-,N/A,,Clear,200,2007-01-03 01:36:00
8:55 PM,35.6,30.2,81,30.26,10.0,SSW,6.9,-,N/A,,Clear,200,2007-01-03 01:55:00
9:15 PM,35.6,30.2,81,30.25,10.0,SSW,6.9,-,N/A,,Clear,210,2007-01-03 02:15:00
9:35 PM,35.6,30.2,81,30.26,10.0,SSW,6.9,-,N/A,,Clear,200,2007-01-03 02:35:00
9:55 PM,35.6,30.2,81,30.25,10.0,South,8.1,-,N/A,,Clear,190,2007-01-03 02:55:00
10:16 PM,35.6,30.2,81,30.25,10.0,SSW,10.4,-,N/A,,Clear,200,2007-01-03 03:16:00
10:36 PM,35.6,30.2,81,30.24,10.0,SSW,8.1,-,N/A,,Clear,210,2007-01-03 03:36:00
10:56 PM,33.8,30.2,87,30.24,10.0,SSW,9.2,-,N/A,,Clear,200,2007-01-03 03:56:00
11:15 PM,33.8,30.2,87,30.24,10.0,SSW,6.9,-,N/A,,Clear,210,2007-01-03 04:15:00
11:35 PM,33.8,30.2,87,30.24,10.0,SSW,5.8,-,N/A,,Clear,210,2007-01-03 04:35:00
11:56 PM,32.0,30.2,93,30.23,7.0,SSW,4.6,-,N/A,,Clear,210,2007-01-03 04:56:00